Notices

What's New in latest Release from April 7th, 2021:

- Updated Glossary, including Speed of Maximum Gust, and Total Hourly Precipitation

- Updated national and regional climate services offices contacts and prices information

- Addition of station inventory lists for 1981-2010, 1971-2000, and 1961-1990 Normals.

If you haven't already, please take our survey and provide feedback about our website: https://eccc.sondage-survey.ca/f/LanguageSelection.aspx?s=442ca660-fcf1-47c0-95a9-59707d6fd709

Hourly Data Report for May 21, 2020

TRENTON A
ONTARIO
Current Station Operator: DND

44°07'00.000" N
77°32'00.000" W
86.30 m
6158875
71621
YTR

Download Data

Hourly Data (May 2020)
Hourly Data Report for May 21, 2020
TIME
LST
Temp Definition
°C
Dew Point Definition
°C
Rel Hum Definition
%
Precip. Amount Definition
mm

Wind Dir Definition
10's deg

Wind Spd Definition
km/h
Visibility Definition
km
Stn Press Definition
kPa
Hmdx Definition


Wind Chill Definition


Weather Definition


00:00 8.6 3.4 70   4 5 24.1 101.60     Clear
01:00 7.5 3.2 74     0 24.1 101.62     Clear
02:00 7.1 2.3 72   22 4 24.1 101.60     Clear
03:00 6.5 2.3 75     0 24.1 101.64     Clear
04:00 5.8 2.3 78   22 4 24.1 101.67     Clear
05:00 4.1 1.1 81   3 4 24.1 101.67     Mainly Clear
06:00 7.5 3.8 77     0 24.1 101.72     Mainly Clear
07:00 13.2 4.3 55   9 5 24.1 101.75     Mainly Clear
08:00 15.1 3.3 45   13 9 24.1 101.75     Mainly Clear
09:00 16.5 1.9 37   13 9 24.1 101.69     Mainly Clear
10:00 17.4 -0.5 30   22 9 24.1 101.66     Mainly Clear
11:00 18.4 0.5 30   17 11 24.1 101.61     Mainly Clear
12:00 17.9 -0.3 29   21 9 24.1 101.55     Mainly Clear
13:00 19.6 0.5 28   21 8 24.1 101.46     Mainly Clear
14:00 19.4 2.0 31   24 13 24.1 101.42     Mainly Clear
15:00 19.1 -0.3 27   23 13 24.1 101.33     Mainly Clear
16:00 20.1 0.8 28   23 11 24.1 101.21     Mainly Clear
17:00 21.0 -0.7 23   26 8 24.1 101.17     Mainly Clear
18:00 21.1 -4.4 17   14 4 24.1 101.08     Mainly Clear
19:00 18.9 1.4 31   22 8 24.1 101.07     Mainly Clear
20:00 15.3 1.9 40     0 24.1 101.05     Mainly Clear
21:00 12.3 1.7 48     0 24.1 101.05     Clear
22:00 10.9 0.9 50   2 4 24.1 101.05     Clear
23:00 11.1 2.0 53     0 24.1 101.04     Clear

Notes on Data Quality.

Legend

  • E = Estimated
  • M = Missing
  • NA = Not Available*
  • [empty] = Indicates an unobserved value
Date modified: